SCP
0 0 0 0 0 0 0 0 0 0 0 0 0 0 0 0 0 0 0 0 0 0 0 0 0 0 0 0 0 0 0 0 0 0 -0 -0 0 0 0 0 0 0 0 0 0 0 0 0 0 0 0 0 0 0
0 0 0 0 0 0 0 0 0 0 0 0 0 0 0 0 0 0 0 0 0 0 0 0 0 0 0 0 0 0 0 -0 -0 -0 0 0 -0 0 0 0 0 0 0 0 0 0 0 0 0 0 0 0 0 0
0 0 0 0 0 0 0 0 0 0 0 0 -0 0 0 0 0 0 0 0 0 0 0 0 0 0 0 0 0 0 0 0 0 -0 -0 -0 0 0 0 0 0 0 0 0 0 0 0 0 0 0 0 0 0 0
0 0 0 0 0 0 0 0 0 0 0 0 0 -0 0 0 0 0 0 0 0 0 0 0 0 0 0 0 0 -0 0 -0 -0 -0 -0 -0 -0 0 0 0 0 0 0 0 0 0 0 0 0 0 0 0 0 0
0 0 0 0 0 0 0 0 0 0 0 0 0 0 -0 0 0 0 0 0 0 0 0 0 0 0 0 0 0 0 0 -0 -0 0 0 0 0 -0 -0 0 0 0 0 0 0 0 0 0 0 0 0 0 0 0
0 0 0 0 0 0 0 0 0 0 0 0 0 -0 0 0 0 0 0 0 0 0 0 0 0 0 0 0 0 0 0 0 0 0 0 0 0 -0 -0 0 -0 0 0 0 0 0 0 0 0 0 0 0 0 0
0 0 0 0 0 0 0 0 0 0 0 0 0 0 0 0 0 0 0 0 0 0 0 0 0 0 0 0 0 0 0 0 0 0 0 -0 -0 -0 -0 0 0 0 0 0 0 0 0 0 0 0 0 0 0 0
0 0 0 0 0 0 0 0 0 0 -0 0 0 -0 0 0 0 0 0 0 0 0 0 0 0 0 0 0 0 0 0 0 0 0 0 0 -0 -0 -0 -0 -0 0 0 0 0 0 0 0 0 0 0 0 0 0
0 0 0 0 0 0 0 0 0 0 -0 -0 0 0 0 0 0 0 0 0 0 0 0 0 0 0 0 0 0 0 0 0 0 0 0 0 0 -0 0 0 -0 -0 0 0 0 0 0 0 0 0 0 0 0 0
0 0 0 0 0 0 0 -0 0 0 -0 0 0 0 0 0 0 0 0 0 0 0 0 0 0 0 0 0 0 0 0 0 0 0 0 0 0 0 0 -0 0 0 0 0 0 0 0 0 0 0 0 0 0 0
0 0 0 0 0 0 0 -0 0 0 0 0 0 0 0 0 0 0 0 0 0 0 0 0 0 0 0 0 0 0 0 0 0 0 0 0 0 0 0 0 -0 -0 0 0 0 0 0 0 0 0 0 0 0 0
0 0 0 0 0 0 0 0 -0 0 0 0 0 0 0 0 0 0 0 0 0 0 0 0 0 0 0 0 0 0 0 0 0 0 0 0 0 0 0 0 0 0 0 0 0 0 0 0 0 0 0 0 0 0
0 0 0 0 0 0 0 0 0 0 0 0 0 0 0 0 0 0 0 0 0 0 0 0 0 0 0 0 0 0 0 0 0 0 0 0 0 -0 -0 0 0 0 -0 0 0 0 0 0 0 0 0 0 0 0
0 0 0 0 0 0 0 0 0 0 0 0 0 0 0 0 0 0 0 0 0 0 0 0 0 0 0 0 0 0 0 0 0 0 0 0 0 0 0 0 -0 -0 -0 -0 -0 0 0 0 0 0 0 0 0 -0
0 0 0 0 0 0 0 0 0 0 0 0 0 0 0 0 0 0 0 0 0 0 0 0 0 0 0 0 0 0 0 0 0 0 0 0 0 0 0 0 0 0 0 -0 -0 0 0 0 0 0 0 0 0 0
0 0 0 0 0 0 0 0 0 0 0 0 0 0 0 0 0 0 0 0 0 0 0 0 0 0 0 0 0 0 0 0 0 0 0 0 -0 -0 0 0 0 0 0 -0 0 0 0 -0 0 0 0 0 0 0
0 0 0 0 0 0 0 0 0 0 0 0 0 0 0 0 0 0 0 0 0 0 0 0 0 0 0 0 0 0 0 0 0 0 0 0 0 0 -0 -0 -0 -0 -0 -0 -0 0 0 0 -0 -0 0 0 0 0
0 0 0 0 0 0 0 0 0 0 0 0 0 0 0 0 0 0 0 0 0 0 0 0 0 0 0 0 0 0 0 0 0 0 0 0 0 0 0 -0 -0 -0 -0 -0 -0 0 0 0 0 -0 0 0 0 0
0 0 0 0 0 0 0 0 0 0 0 0 0 0 0 0 0 0 0 0 0 0 0 0 0 0 0 0 0 0 0 0 0 0 0 0 0 0 0 0 0 -0 -0 -0 -0 -0 -0 -0 -0 -0 -0 -0 0 0
0 0 0 0 0 0 0 0 0 0 0 0 0 0 0 0 0 0 0 0 0 0 0 0 0 0 0 0 0 0 0 0 0 0 0 0 0 0 0 0 0 0 -0 -0 -0 -0 -0 -0 -0 -0 -0 -0 -0 -0
0 0 0 0 0 0 0 0 0 0 0 0 0 0 0 0 0 0 0 0 0 0 0 0 0 0 0 0 0 0 0 0 0 0 0 0 0 0 0 0 0 0 -0 -0 -0 -0 -0 -0 -0 -0 -0 -0 -0 -0
0 0 0 0 0 0 0 0 0 0 0 0 0 0 0 0 0 0 0 0 0 0 0 0 0 0 0 0 0 0 0 0 0 0 0 0 0 0 0 0 0 0 0 0 0 -0 -0 -0 -0 -0 -0 -0 -0 -0
0 0 0 0 0 0 0 0 0 0 0 0 0 0 0 0 0 0 0 0 0 0 0 0 0 0 0 0 0 0 0 0 0 0 0 0 0 0 0 0 0 0 0 0 0 0 0 -0 -0 -0 -0 -0 -0 -0
0 0 0 0 0 0 0 0 0 0 0 0 0 0 0 0 0 0 0 0 0 0 0 0 0 0 0 0 0 0 0 0 0 0 0 0 0 0 0 0 0 0 0 0 0 0 0 0 -0 -0 -0 -0 -0 -0
0 0 0 0 0 0 0 0 0 0 0 0 0 0 0 0 0 0 0 0 0 0 0 0 0 0 0 0 0 0 0 0 0 0 0 0 0 0 0 0 0 0 0 0 0 0 0 0 0 -0 -0 -0 -0 -0
0 0 0 0 0 0 0 0 0 0 0 0 0 0 0 0 0 0 0 0 0 0 0 0 0 0 0 0 0 0 0 0 0 0 0 0 0 0 0 0 0 0 0 0 0 0 0 0 0 0 -0 -0 -0 -0
0 0 0 0 0 0 0 0 0 0 0 0 0 0 0 0 0 0 0 0 0 0 0 0 0 0 0 0 0 0 0 0 0 0 0 0 0 0 0 0 0 0 0 0 0 0 0 0 0 0 0 0 0 -0
0 0 0 0 0 0 0 0 0 0 0 0 0 0 0 0 0 0 0 0 0 0 0 0 0 0 0 0 0 0 0 0 0 0 0 0 0 0 0 0 0 0 0 0 0 0 0 0 0 0 0 0 0 0
0 0 0 0 0 0 0 0 0 0 0 0 0 0 0 0 0 0 0 0 0 -0 -0 0 0 0 0 0 0 0 0 0 0 0 0 0 0 0 0 0 0 0 0 0 0 0 0 0 0 0 0 0 0 0
0 0 0 0 0 0 0 0 0 0 0 0 0 0 0 0 0 0 0 0 0 0 0 0 0 0 0 0 0 0 0 0 0 0 0 0 0 0 0 0 0 0 0 0 0 0 0 0 0 0 0 0 0 0
0 0 0 0 0 0 0 0 0 0 0 0 0 0 0 0 0 0 0 0 0 0 0 0 0 0 0 0 0 0 0 0 0 0 0 0 0 0 0 0 0 0 0 0 0 0 0 0 0 0 0 0 0 0
0 0 0 0 0 0 0 0 0 0 0 0 0 0 0 0 0 0 0 0 0 0 0 0 0 0 0 0 0 0 0 0 0 0 0 0 0 0 0 0 0 0 0 0 0 0 0 0 0 0 0 0 0 0
0 0 0 0 0 0 0 0 0 0 0 0 0 0 0 0 0 0 0 0 0 0 0 0 0 0 0 0 0 0 0 0 0 0 0 0 0 0 0 0 0 0 0 0 0 0 0 0 0 0 0 0 0 0
Wind_Speed_500mb
55 56 57 57 59 61 61 62 64 54 55 69 69 57 37 22 15 21 27 23 25 18 44 30 18 20 28 21 6 21 18 1 4 4 4 5 5 4 5 4 3 3 10 8 7 8 8 39 7 7 12 24 30 33
57 56 57 57 59 62 64 63 63 62 51 66 67 59 34 28 18 21 24 19 20 28 41 63 47 28 29 36 39 11 11 16 7 6 4 6 4 5 9 1 4 2 4 2 5 6 21 22 2 20 18 27 33 37
57 55 57 57 58 60 64 66 65 63 50 65 62 58 37 27 22 21 22 22 27 24 35 11 10 28 13 5 14 11 10 8 8 9 7 4 6 4 7 6 5 3 7 2 5 6 21 22 19 26 33 36 38 40
55 54 58 62 59 59 64 66 69 62 50 65 61 58 36 26 23 21 22 16 13 15 9 14 32 26 15 17 28 27 29 27 25 27 6 5 5 10 5 4 6 6 6 6 4 8 25 13 35 40 51 43 47 48
55 57 59 61 63 61 62 66 68 67 53 66 63 55 36 25 22 24 24 12 11 8 8 25 35 10 31 34 39 17 19 18 6 4 4 3 5 5 3 4 5 13 9 6 5 12 12 33 44 52 45 52 51 54
59 58 61 62 61 62 61 65 66 69 63 65 65 50 34 27 21 22 8 2 11 13 9 7 17 15 34 38 23 14 9 7 3 4 6 8 7 6 6 4 5 12 15 13 12 30 44 51 49 33 46 50 47 50
61 59 58 60 56 58 63 66 67 70 67 65 62 45 34 19 15 8 8 17 22 5 6 11 13 8 22 22 14 13 11 3 3 3 5 9 8 10 5 5 13 24 29 32 30 26 21 21 40 56 48 45 45 42
57 59 55 55 55 57 59 65 68 68 64 64 52 44 18 9 11 11 10 17 15 5 4 5 9 12 18 12 9 16 8 2 4 4 3 6 12 6 6 16 36 38 42 38 23 22 31 44 57 53 40 39 44 43
57 56 53 52 54 55 55 62 67 64 68 59 44 24 7 3 2 8 20 14 7 7 4 5 5 7 18 7 10 11 9 3 4 4 6 11 4 5 14 35 39 39 33 44 39 36 37 34 43 45 39 40 41 44
53 55 58 55 53 52 54 59 66 60 66 47 20 8 3 3 18 19 5 5 7 5 7 6 5 6 7 10 5 10 5 4 4 4 11 2 4 15 25 41 42 43 39 41 35 35 33 43 43 48 44 39 38 41
49 54 60 57 50 48 52 57 54 63 57 42 20 8 13 17 8 6 6 7 6 6 11 10 12 7 4 4 3 5 3 4 4 5 9 6 10 15 40 49 50 38 42 40 34 35 35 42 47 51 50 43 41 43
48 52 55 49 46 45 48 45 54 57 50 47 33 31 16 1 5 5 4 2 7 4 6 5 4 8 4 3 5 1 1 2 1 10 4 7 8 36 40 46 38 45 54 55 46 33 32 35 39 43 47 44 41 44
45 50 48 50 41 41 40 38 48 55 56 28 5 7 3 3 3 7 7 4 4 6 6 3 5 4 4 2 3 0 2 1 7 2 3 6 27 39 36 43 50 50 45 54 51 33 26 30 31 33 40 44 41 39
44 44 43 41 38 34 28 36 46 53 35 6 4 8 8 6 8 8 7 5 7 12 9 10 3 3 2 4 2 3 2 1 3 2 2 6 29 38 43 40 42 46 50 49 55 47 47 39 37 34 35 38 40 41
43 39 37 40 29 26 36 43 43 46 11 10 8 9 11 15 12 8 14 11 13 15 9 2 3 4 2 3 0 1 3 1 4 5 3 12 29 36 37 39 44 44 41 49 52 53 47 47 48 44 35 33 32 38
36 41 35 21 29 33 38 39 44 20 9 11 15 8 11 5 9 11 16 18 12 9 4 3 2 3 3 2 2 4 3 6 3 6 12 22 29 28 24 28 36 43 45 46 50 43 44 48 54 45 46 37 30 30
32 33 34 43 47 34 35 40 23 14 12 11 14 27 18 13 14 15 20 16 10 8 4 4 5 2 5 3 4 7 8 6 11 12 18 20 20 17 15 20 28 37 40 43 52 47 50 49 45 43 55 52 39 30
38 40 39 43 42 41 31 14 11 12 15 23 12 17 29 32 31 35 38 31 17 11 10 6 10 9 6 6 5 7 22 22 25 24 21 18 13 11 17 20 24 30 37 42 43 42 40 46 51 52 51 46 50 48
36 41 40 29 31 21 9 7 11 10 19 17 25 30 30 30 34 36 36 34 29 20 7 10 8 7 7 12 13 16 20 19 17 20 23 13 4 9 13 18 21 26 32 40 44 46 39 40 43 43 49 57 49 57
38 32 28 23 21 7 9 11 11 13 11 9 15 16 16 21 29 29 29 36 35 13 12 10 13 20 19 35 36 30 25 19 16 11 15 10 10 12 11 16 20 24 28 32 35 40 40 47 50 42 52 59 63 63
40 24 26 24 17 18 12 10 14 14 14 13 16 10 11 18 21 22 29 32 18 14 8 26 37 43 49 40 30 29 31 27 20 15 13 15 10 14 9 12 17 22 25 29 33 34 38 42 48 44 42 58 61 60
33 28 28 24 13 13 18 22 17 11 11 14 12 15 13 10 16 14 13 18 16 35 41 39 46 42 45 44 35 36 34 27 22 16 14 12 15 9 8 10 18 22 22 24 30 31 33 43 47 45 31 41 54 68
28 32 18 15 14 14 15 17 13 11 8 6 4 6 6 7 8 8 7 12 15 30 40 50 51 45 44 40 33 31 33 32 29 21 17 13 14 14 10 11 17 19 21 20 24 29 35 37 38 45 44 42 42 47
20 12 11 13 23 10 9 9 13 9 8 6 5 6 6 8 4 7 7 13 28 34 38 37 39 40 36 29 27 28 38 34 26 24 20 14 9 9 13 13 12 12 16 18 18 22 30 31 35 34 41 41 39 47
10 14 12 16 15 11 10 7 8 7 10 12 8 7 5 5 4 5 6 12 14 23 28 26 26 28 26 31 31 33 36 32 27 20 11 8 5 6 10 13 10 10 16 16 17 21 24 25 29 30 30 34 36 33
14 18 18 14 9 12 11 7 10 11 7 9 11 6 3 4 6 9 3 13 15 22 28 24 22 29 34 34 25 29 32 25 19 15 14 12 8 1 11 11 10 9 17 16 16 20 23 25 26 28 29 30 31 28
14 15 18 21 11 8 8 13 9 5 5 8 5 7 6 6 9 4 5 14 21 32 38 28 22 20 24 27 27 24 33 20 20 22 17 15 7 5 9 8 9 9 10 11 14 20 25 27 29 29 29 29 31 32
21 15 18 21 17 17 9 5 5 9 9 10 5 10 10 9 5 3 1 20 31 36 39 40 21 10 4 10 19 30 37 34 34 27 22 14 10 7 4 3 3 4 5 4 8 22 21 23 26 24 24 24 24 25
18 22 21 11 15 12 19 14 15 21 23 13 8 11 8 12 14 27 36 44 49 53 54 40 27 13 10 18 21 24 31 40 40 35 30 23 19 14 10 7 3 4 3 5 9 11 16 20 20 22 24 23 21 19
21 24 17 21 23 20 35 33 28 28 30 33 27 27 32 32 31 37 42 39 42 41 41 34 26 23 20 19 21 25 29 36 40 33 27 26 22 20 18 15 10 9 4 4 8 11 13 14 17 18 18 18 18 17
10 30 19 25 28 50 54 47 47 44 35 36 35 36 40 31 24 23 22 26 22 21 14 10 13 17 17 14 20 26 30 36 41 36 28 20 20 23 20 16 14 11 9 7 2 2 6 8 12 14 14 14 14 15
21 29 21 18 21 33 34 24 23 29 35 38 44 40 32 21 14 2 22 15 12 11 6 1 8 13 14 17 19 18 19 20 25 25 25 23 23 20 18 16 15 14 14 12 8 6 5 7 9 9 9 9 10 12
20 28 30 28 17 16 21 17 10 11 15 12 18 21 15 13 8 12 14 17 18 17 17 9 11 16 15 14 15 17 16 21 24 22 16 9 8 9 13 15 16 17 16 15 14 10 6 8 10 11 10 8 10 12
Wind_Direction_500mb
342 343 344 344 345 347 349 352 350 344 343 346 347 346 341 330 311 295 295 291 274 269 286 274 270 263 283 276 283 310 323 69 267 300 297 296 270 349 297 64 85 141 161 184 212 227 171 1 4 82 348 330 334 333
337 339 341 342 342 344 346 348 350 346 340 346 344 346 338 333 307 283 290 290 281 261 272 296 294 287 269 278 265 269 280 296 320 328 310 279 330 334 345 201 12 194 341 96 313 26 340 339 133 26 358 341 339 330
334 335 341 340 342 341 342 345 346 347 341 345 343 342 333 331 325 303 299 282 288 284 309 297 349 341 323 266 217 238 250 259 318 4 317 304 324 323 358 32 304 1 358 335 301 26 338 73 46 5 353 344 340 339
328 330 334 340 338 340 339 340 343 346 342 344 342 338 327 318 325 312 300 287 278 288 295 288 326 333 333 321 313 277 258 263 282 309 285 298 307 357 8 348 334 354 311 359 285 349 332 246 343 340 337 344 342 340
319 322 324 331 335 336 338 336 337 341 338 342 339 337 322 310 314 318 307 287 298 295 289 294 327 7 345 330 329 320 287 268 267 293 267 304 279 317 260 203 25 342 5 4 343 336 302 292 313 325 330 332 335 337
313 314 317 324 329 335 336 337 332 335 336 339 335 335 317 300 292 323 310 187 310 277 298 301 309 315 353 347 26 58 31 147 179 271 303 295 289 295 310 319 158 343 335 326 284 299 294 299 305 310 323 327 329 333
306 314 320 324 324 332 335 338 336 334 337 337 333 333 321 290 260 272 294 305 324 299 278 296 299 311 345 359 10 8 21 109 160 293 313 317 309 332 285 273 324 332 322 307 298 298 305 323 308 313 317 322 326 331
307 308 315 319 323 329 333 337 339 339 339 337 332 331 325 280 246 267 264 300 304 237 241 292 285 320 357 341 0 355 350 8 35 329 312 312 295 295 271 347 328 323 322 311 320 308 299 301 305 309 314 321 330 335
304 307 313 311 318 326 331 333 338 340 342 340 333 331 320 162 235 252 281 287 240 244 264 215 282 303 338 340 353 348 351 25 343 12 2 340 318 347 306 315 316 313 309 301 311 311 310 300 299 301 312 317 325 327
298 304 309 310 316 324 326 330 331 335 342 344 346 340 250 232 298 297 234 229 220 223 229 251 221 270 318 341 15 353 19 24 343 22 308 103 289 296 307 316 322 323 303 301 301 304 302 302 308 306 306 310 312 317
296 296 300 306 313 320 324 330 331 335 344 350 331 272 254 300 285 224 233 221 184 229 213 234 224 283 280 316 316 8 351 356 14 4 340 1 353 329 353 2 0 339 337 331 302 289 290 287 292 298 303 303 307 310
301 294 296 302 310 312 318 324 331 336 337 325 301 290 307 258 209 231 221 231 225 279 213 224 218 221 226 208 256 246 268 229 85 322 327 6 294 334 348 2 11 1 1 355 347 299 291 288 288 288 289 296 299 306
294 296 297 303 311 308 309 314 327 331 330 321 298 284 264 227 256 223 210 202 245 211 231 250 321 212 191 170 245 277 264 118 318 11 2 250 318 336 345 352 348 354 351 354 2 2 322 313 305 296 292 290 292 296
295 301 306 316 318 308 310 312 323 327 327 273 222 277 213 214 236 205 198 204 232 242 272 299 247 244 206 205 216 252 52 238 106 113 279 311 333 336 344 349 345 345 3 2 0 4 0 347 333 319 305 296 292 288
297 299 305 317 311 309 313 313 315 319 257 240 194 230 227 239 254 233 225 260 260 276 274 246 153 198 156 227 327 315 211 162 218 201 233 306 329 335 344 354 357 355 353 353 358 10 10 8 6 355 327 311 293 280
304 305 305 303 307 316 316 317 314 304 235 230 233 240 226 252 250 223 220 249 275 246 216 181 168 219 192 169 199 208 200 233 240 224 264 309 323 338 349 3 2 2 2 1 3 359 355 2 3 351 6 357 327 304
299 294 304 307 315 318 315 308 292 219 229 228 240 227 228 259 254 255 229 237 228 190 227 170 225 239 121 218 227 196 211 220 230 267 315 331 336 355 4 3 3 2 5 3 1 5 13 11 9 4 5 2 351 331
301 302 302 302 315 326 315 267 238 238 240 239 239 233 229 242 249 259 253 257 240 205 179 217 142 188 209 206 228 225 232 264 288 293 302 316 326 357 22 21 10 9 7 7 3 1 3 11 12 7 2 1 7 7
297 305 311 313 306 296 279 243 235 265 247 259 254 256 256 262 261 262 263 258 248 223 186 180 230 199 208 209 230 249 258 264 287 311 319 320 335 360 5 11 14 15 11 10 11 7 359 0 2 7 11 13 6 4
282 298 310 294 274 250 270 260 231 255 262 258 256 248 243 256 275 266 259 247 234 206 198 209 227 232 226 259 272 255 257 263 283 302 318 332 328 345 350 8 19 15 15 15 15 11 9 10 10 1 4 1 4 2
315 308 315 312 264 231 253 264 248 246 272 263 268 261 257 253 255 248 245 238 201 215 232 234 242 248 254 257 267 248 243 244 261 274 288 306 316 340 332 352 9 12 10 13 8 5 8 5 6 5 1 6 10 11
291 301 298 285 242 230 250 235 237 285 263 261 274 257 256 250 256 249 231 200 232 240 234 241 245 249 252 254 264 249 241 238 242 254 272 295 320 319 305 336 358 4 9 7 7 2 5 6 9 15 11 15 16 26
273 279 275 225 225 228 254 222 227 228 243 245 245 243 233 237 229 200 232 224 248 270 262 252 252 251 250 255 258 254 233 231 237 248 243 260 302 312 326 321 332 350 1 3 5 5 6 15 29 28 24 19 22 20
255 248 231 224 205 250 239 235 217 242 238 242 226 250 226 231 226 226 238 260 271 284 281 273 264 247 245 242 237 232 224 224 235 240 248 267 276 314 319 328 326 338 354 358 7 12 11 20 27 31 21 28 33 29
233 229 217 231 218 225 218 228 212 217 239 209 233 250 236 192 238 252 255 283 311 310 305 285 255 240 239 254 255 240 219 220 227 229 215 208 256 322 349 350 341 342 0 357 13 13 13 19 20 23 23 14 20 22
227 220 211 211 212 205 211 230 210 226 220 211 232 240 180 183 232 248 238 346 353 354 348 333 302 276 256 242 244 220 203 188 190 194 199 211 221 309 359 351 1 355 354 5 17 24 16 15 15 19 29 33 31 27
225 230 213 222 230 223 247 250 251 260 252 229 218 187 180 223 242 233 199 23 12 5 357 341 327 298 267 261 231 210 185 198 206 204 206 211 238 322 2 354 9 26 20 42 40 41 27 21 20 17 21 25 31 39
220 215 204 222 205 212 242 245 231 223 224 220 200 205 192 206 249 232 183 338 334 331 333 333 332 326 238 204 203 191 190 196 194 199 197 205 235 273 334 37 52 69 102 106 352 357 11 6 7 10 17 25 28 34
218 212 212 227 224 214 214 224 236 236 245 228 238 242 239 226 282 300 306 308 304 302 303 302 298 290 235 212 205 203 201 197 198 196 206 217 217 224 234 225 207 159 152 5 12 13 357 359 14 15 13 15 22 28
224 197 213 229 230 240 239 232 251 258 259 260 260 279 280 277 278 290 290 289 291 296 292 278 280 263 233 218 214 213 214 215 217 222 226 223 225 227 218 209 199 188 196 330 350 9 26 40 36 36 31 25 25 26
210 195 222 236 244 249 255 259 260 264 257 256 258 251 258 270 277 280 290 302 308 300 304 259 233 253 239 251 257 236 231 228 222 227 233 235 223 209 208 213 203 218 251 244 209 67 71 43 26 18 17 25 39 46
201 211 227 231 245 258 256 254 246 242 251 250 250 249 248 235 228 195 11 355 334 332 339 253 197 264 279 281 265 241 229 223 206 193 183 188 195 210 221 222 219 215 198 189 189 161 113 52 47 50 39 42 52 67
219 226 229 245 252 254 236 216 232 254 228 219 217 210 187 169 109 26 45 31 30 26 18 336 256 240 227 213 206 215 220 196 177 174 166 183 186 214 209 200 195 194 197 191 178 156 105 69 64 69 74 72 73 68
Wind_Speed_850mb
55 56 57 57 59 61 61 62 64 54 55 69 69 57 37 22 15 21 27 23 25 18 44 30 18 20 28 21 6 21 18 1 4 4 4 5 5 4 5 4 3 3 10 8 7 8 8 39 7 7 12 24 30 33
57 56 57 57 59 62 64 63 63 62 51 66 67 59 34 28 18 21 24 19 20 28 41 63 47 28 29 36 39 11 11 16 7 6 4 6 4 5 9 1 4 2 4 2 5 6 21 22 2 20 18 27 33 37
57 55 57 57 58 60 64 66 65 63 50 65 62 58 37 27 22 21 22 22 27 24 35 11 10 28 13 5 14 11 10 8 8 9 7 4 6 4 7 6 5 3 7 2 5 6 21 22 19 26 33 36 38 40
55 54 58 62 59 59 64 66 69 62 50 65 61 58 36 26 23 21 22 16 13 15 9 14 32 26 15 17 28 27 29 27 25 27 6 5 5 10 5 4 6 6 6 6 4 8 25 13 35 40 51 43 47 48
55 57 59 61 63 61 62 66 68 67 53 66 63 55 36 25 22 24 24 12 11 8 8 25 35 10 31 34 39 17 19 18 6 4 4 3 5 5 3 4 5 13 9 6 5 12 12 33 44 52 45 52 51 54
59 58 61 62 61 62 61 65 66 69 63 65 65 50 34 27 21 22 8 2 11 13 9 7 17 15 34 38 23 14 9 7 3 4 6 8 7 6 6 4 5 12 15 13 12 30 44 51 49 33 46 50 47 50
61 59 58 60 56 58 63 66 67 70 67 65 62 45 34 19 15 8 8 17 22 5 6 11 13 8 22 22 14 13 11 3 3 3 5 9 8 10 5 5 13 24 29 32 30 26 21 21 40 56 48 45 45 42
57 59 55 55 55 57 59 65 68 68 64 64 52 44 18 9 11 11 10 17 15 5 4 5 9 12 18 12 9 16 8 2 4 4 3 6 12 6 6 16 36 38 42 38 23 22 31 44 57 53 40 39 44 43
57 56 53 52 54 55 55 62 67 64 68 59 44 24 7 3 2 8 20 14 7 7 4 5 5 7 18 7 10 11 9 3 4 4 6 11 4 5 14 35 39 39 33 44 39 36 37 34 43 45 39 40 41 44
53 55 58 55 53 52 54 59 66 60 66 47 20 8 3 3 18 19 5 5 7 5 7 6 5 6 7 10 5 10 5 4 4 4 11 2 4 15 25 41 42 43 39 41 35 35 33 43 43 48 44 39 38 41
49 54 60 57 50 48 52 57 54 63 57 42 20 8 13 17 8 6 6 7 6 6 11 10 12 7 4 4 3 5 3 4 4 5 9 6 10 15 40 49 50 38 42 40 34 35 35 42 47 51 50 43 41 43
48 52 55 49 46 45 48 45 54 57 50 47 33 31 16 1 5 5 4 2 7 4 6 5 4 8 4 3 5 1 1 2 1 10 4 7 8 36 40 46 38 45 54 55 46 33 32 35 39 43 47 44 41 44
45 50 48 50 41 41 40 38 48 55 56 28 5 7 3 3 3 7 7 4 4 6 6 3 5 4 4 2 3 0 2 1 7 2 3 6 27 39 36 43 50 50 45 54 51 33 26 30 31 33 40 44 41 39
44 44 43 41 38 34 28 36 46 53 35 6 4 8 8 6 8 8 7 5 7 12 9 10 3 3 2 4 2 3 2 1 3 2 2 6 29 38 43 40 42 46 50 49 55 47 47 39 37 34 35 38 40 41
43 39 37 40 29 26 36 43 43 46 11 10 8 9 11 15 12 8 14 11 13 15 9 2 3 4 2 3 0 1 3 1 4 5 3 12 29 36 37 39 44 44 41 49 52 53 47 47 48 44 35 33 32 38
36 41 35 21 29 33 38 39 44 20 9 11 15 8 11 5 9 11 16 18 12 9 4 3 2 3 3 2 2 4 3 6 3 6 12 22 29 28 24 28 36 43 45 46 50 43 44 48 54 45 46 37 30 30
32 33 34 43 47 34 35 40 23 14 12 11 14 27 18 13 14 15 20 16 10 8 4 4 5 2 5 3 4 7 8 6 11 12 18 20 20 17 15 20 28 37 40 43 52 47 50 49 45 43 55 52 39 30
38 40 39 43 42 41 31 14 11 12 15 23 12 17 29 32 31 35 38 31 17 11 10 6 10 9 6 6 5 7 22 22 25 24 21 18 13 11 17 20 24 30 37 42 43 42 40 46 51 52 51 46 50 48
36 41 40 29 31 21 9 7 11 10 19 17 25 30 30 30 34 36 36 34 29 20 7 10 8 7 7 12 13 16 20 19 17 20 23 13 4 9 13 18 21 26 32 40 44 46 39 40 43 43 49 57 49 57
38 32 28 23 21 7 9 11 11 13 11 9 15 16 16 21 29 29 29 36 35 13 12 10 13 20 19 35 36 30 25 19 16 11 15 10 10 12 11 16 20 24 28 32 35 40 40 47 50 42 52 59 63 63
40 24 26 24 17 18 12 10 14 14 14 13 16 10 11 18 21 22 29 32 18 14 8 26 37 43 49 40 30 29 31 27 20 15 13 15 10 14 9 12 17 22 25 29 33 34 38 42 48 44 42 58 61 60
33 28 28 24 13 13 18 22 17 11 11 14 12 15 13 10 16 14 13 18 16 35 41 39 46 42 45 44 35 36 34 27 22 16 14 12 15 9 8 10 18 22 22 24 30 31 33 43 47 45 31 41 54 68
28 32 18 15 14 14 15 17 13 11 8 6 4 6 6 7 8 8 7 12 15 30 40 50 51 45 44 40 33 31 33 32 29 21 17 13 14 14 10 11 17 19 21 20 24 29 35 37 38 45 44 42 42 47
20 12 11 13 23 10 9 9 13 9 8 6 5 6 6 8 4 7 7 13 28 34 38 37 39 40 36 29 27 28 38 34 26 24 20 14 9 9 13 13 12 12 16 18 18 22 30 31 35 34 41 41 39 47
10 14 12 16 15 11 10 7 8 7 10 12 8 7 5 5 4 5 6 12 14 23 28 26 26 28 26 31 31 33 36 32 27 20 11 8 5 6 10 13 10 10 16 16 17 21 24 25 29 30 30 34 36 33
14 18 18 14 9 12 11 7 10 11 7 9 11 6 3 4 6 9 3 13 15 22 28 24 22 29 34 34 25 29 32 25 19 15 14 12 8 1 11 11 10 9 17 16 16 20 23 25 26 28 29 30 31 28
14 15 18 21 11 8 8 13 9 5 5 8 5 7 6 6 9 4 5 14 21 32 38 28 22 20 24 27 27 24 33 20 20 22 17 15 7 5 9 8 9 9 10 11 14 20 25 27 29 29 29 29 31 32
21 15 18 21 17 17 9 5 5 9 9 10 5 10 10 9 5 3 1 20 31 36 39 40 21 10 4 10 19 30 37 34 34 27 22 14 10 7 4 3 3 4 5 4 8 22 21 23 26 24 24 24 24 25
18 22 21 11 15 12 19 14 15 21 23 13 8 11 8 12 14 27 36 44 49 53 54 40 27 13 10 18 21 24 31 40 40 35 30 23 19 14 10 7 3 4 3 5 9 11 16 20 20 22 24 23 21 19
21 24 17 21 23 20 35 33 28 28 30 33 27 27 32 32 31 37 42 39 42 41 41 34 26 23 20 19 21 25 29 36 40 33 27 26 22 20 18 15 10 9 4 4 8 11 13 14 17 18 18 18 18 17
10 30 19 25 28 50 54 47 47 44 35 36 35 36 40 31 24 23 22 26 22 21 14 10 13 17 17 14 20 26 30 36 41 36 28 20 20 23 20 16 14 11 9 7 2 2 6 8 12 14 14 14 14 15
21 29 21 18 21 33 34 24 23 29 35 38 44 40 32 21 14 2 22 15 12 11 6 1 8 13 14 17 19 18 19 20 25 25 25 23 23 20 18 16 15 14 14 12 8 6 5 7 9 9 9 9 10 12
20 28 30 28 17 16 21 17 10 11 15 12 18 21 15 13 8 12 14 17 18 17 17 9 11 16 15 14 15 17 16 21 24 22 16 9 8 9 13 15 16 17 16 15 14 10 6 8 10 11 10 8 10 12
Wind_Direction_850mb
342 343 344 344 345 347 349 352 350 344 343 346 347 346 341 330 311 295 295 291 274 269 286 274 270 263 283 276 283 310 323 69 267 300 297 296 270 349 297 64 85 141 161 184 212 227 171 1 4 82 348 330 334 333
337 339 341 342 342 344 346 348 350 346 340 346 344 346 338 333 307 283 290 290 281 261 272 296 294 287 269 278 265 269 280 296 320 328 310 279 330 334 345 201 12 194 341 96 313 26 340 339 133 26 358 341 339 330
334 335 341 340 342 341 342 345 346 347 341 345 343 342 333 331 325 303 299 282 288 284 309 297 349 341 323 266 217 238 250 259 318 4 317 304 324 323 358 32 304 1 358 335 301 26 338 73 46 5 353 344 340 339
328 330 334 340 338 340 339 340 343 346 342 344 342 338 327 318 325 312 300 287 278 288 295 288 326 333 333 321 313 277 258 263 282 309 285 298 307 357 8 348 334 354 311 359 285 349 332 246 343 340 337 344 342 340
319 322 324 331 335 336 338 336 337 341 338 342 339 337 322 310 314 318 307 287 298 295 289 294 327 7 345 330 329 320 287 268 267 293 267 304 279 317 260 203 25 342 5 4 343 336 302 292 313 325 330 332 335 337
313 314 317 324 329 335 336 337 332 335 336 339 335 335 317 300 292 323 310 187 310 277 298 301 309 315 353 347 26 58 31 147 179 271 303 295 289 295 310 319 158 343 335 326 284 299 294 299 305 310 323 327 329 333
306 314 320 324 324 332 335 338 336 334 337 337 333 333 321 290 260 272 294 305 324 299 278 296 299 311 345 359 10 8 21 109 160 293 313 317 309 332 285 273 324 332 322 307 298 298 305 323 308 313 317 322 326 331
307 308 315 319 323 329 333 337 339 339 339 337 332 331 325 280 246 267 264 300 304 237 241 292 285 320 357 341 0 355 350 8 35 329 312 312 295 295 271 347 328 323 322 311 320 308 299 301 305 309 314 321 330 335
304 307 313 311 318 326 331 333 338 340 342 340 333 331 320 162 235 252 281 287 240 244 264 215 282 303 338 340 353 348 351 25 343 12 2 340 318 347 306 315 316 313 309 301 311 311 310 300 299 301 312 317 325 327
298 304 309 310 316 324 326 330 331 335 342 344 346 340 250 232 298 297 234 229 220 223 229 251 221 270 318 341 15 353 19 24 343 22 308 103 289 296 307 316 322 323 303 301 301 304 302 302 308 306 306 310 312 317
296 296 300 306 313 320 324 330 331 335 344 350 331 272 254 300 285 224 233 221 184 229 213 234 224 283 280 316 316 8 351 356 14 4 340 1 353 329 353 2 0 339 337 331 302 289 290 287 292 298 303 303 307 310
301 294 296 302 310 312 318 324 331 336 337 325 301 290 307 258 209 231 221 231 225 279 213 224 218 221 226 208 256 246 268 229 85 322 327 6 294 334 348 2 11 1 1 355 347 299 291 288 288 288 289 296 299 306
294 296 297 303 311 308 309 314 327 331 330 321 298 284 264 227 256 223 210 202 245 211 231 250 321 212 191 170 245 277 264 118 318 11 2 250 318 336 345 352 348 354 351 354 2 2 322 313 305 296 292 290 292 296
295 301 306 316 318 308 310 312 323 327 327 273 222 277 213 214 236 205 198 204 232 242 272 299 247 244 206 205 216 252 52 238 106 113 279 311 333 336 344 349 345 345 3 2 0 4 0 347 333 319 305 296 292 288
297 299 305 317 311 309 313 313 315 319 257 240 194 230 227 239 254 233 225 260 260 276 274 246 153 198 156 227 327 315 211 162 218 201 233 306 329 335 344 354 357 355 353 353 358 10 10 8 6 355 327 311 293 280
304 305 305 303 307 316 316 317 314 304 235 230 233 240 226 252 250 223 220 249 275 246 216 181 168 219 192 169 199 208 200 233 240 224 264 309 323 338 349 3 2 2 2 1 3 359 355 2 3 351 6 357 327 304
299 294 304 307 315 318 315 308 292 219 229 228 240 227 228 259 254 255 229 237 228 190 227 170 225 239 121 218 227 196 211 220 230 267 315 331 336 355 4 3 3 2 5 3 1 5 13 11 9 4 5 2 351 331
301 302 302 302 315 326 315 267 238 238 240 239 239 233 229 242 249 259 253 257 240 205 179 217 142 188 209 206 228 225 232 264 288 293 302 316 326 357 22 21 10 9 7 7 3 1 3 11 12 7 2 1 7 7
297 305 311 313 306 296 279 243 235 265 247 259 254 256 256 262 261 262 263 258 248 223 186 180 230 199 208 209 230 249 258 264 287 311 319 320 335 360 5 11 14 15 11 10 11 7 359 0 2 7 11 13 6 4
282 298 310 294 274 250 270 260 231 255 262 258 256 248 243 256 275 266 259 247 234 206 198 209 227 232 226 259 272 255 257 263 283 302 318 332 328 345 350 8 19 15 15 15 15 11 9 10 10 1 4 1 4 2
315 308 315 312 264 231 253 264 248 246 272 263 268 261 257 253 255 248 245 238 201 215 232 234 242 248 254 257 267 248 243 244 261 274 288 306 316 340 332 352 9 12 10 13 8 5 8 5 6 5 1 6 10 11
291 301 298 285 242 230 250 235 237 285 263 261 274 257 256 250 256 249 231 200 232 240 234 241 245 249 252 254 264 249 241 238 242 254 272 295 320 319 305 336 358 4 9 7 7 2 5 6 9 15 11 15 16 26
273 279 275 225 225 228 254 222 227 228 243 245 245 243 233 237 229 200 232 224 248 270 262 252 252 251 250 255 258 254 233 231 237 248 243 260 302 312 326 321 332 350 1 3 5 5 6 15 29 28 24 19 22 20
255 248 231 224 205 250 239 235 217 242 238 242 226 250 226 231 226 226 238 260 271 284 281 273 264 247 245 242 237 232 224 224 235 240 248 267 276 314 319 328 326 338 354 358 7 12 11 20 27 31 21 28 33 29
233 229 217 231 218 225 218 228 212 217 239 209 233 250 236 192 238 252 255 283 311 310 305 285 255 240 239 254 255 240 219 220 227 229 215 208 256 322 349 350 341 342 0 357 13 13 13 19 20 23 23 14 20 22
227 220 211 211 212 205 211 230 210 226 220 211 232 240 180 183 232 248 238 346 353 354 348 333 302 276 256 242 244 220 203 188 190 194 199 211 221 309 359 351 1 355 354 5 17 24 16 15 15 19 29 33 31 27
225 230 213 222 230 223 247 250 251 260 252 229 218 187 180 223 242 233 199 23 12 5 357 341 327 298 267 261 231 210 185 198 206 204 206 211 238 322 2 354 9 26 20 42 40 41 27 21 20 17 21 25 31 39
220 215 204 222 205 212 242 245 231 223 224 220 200 205 192 206 249 232 183 338 334 331 333 333 332 326 238 204 203 191 190 196 194 199 197 205 235 273 334 37 52 69 102 106 352 357 11 6 7 10 17 25 28 34
218 212 212 227 224 214 214 224 236 236 245 228 238 242 239 226 282 300 306 308 304 302 303 302 298 290 235 212 205 203 201 197 198 196 206 217 217 224 234 225 207 159 152 5 12 13 357 359 14 15 13 15 22 28
224 197 213 229 230 240 239 232 251 258 259 260 260 279 280 277 278 290 290 289 291 296 292 278 280 263 233 218 214 213 214 215 217 222 226 223 225 227 218 209 199 188 196 330 350 9 26 40 36 36 31 25 25 26
210 195 222 236 244 249 255 259 260 264 257 256 258 251 258 270 277 280 290 302 308 300 304 259 233 253 239 251 257 236 231 228 222 227 233 235 223 209 208 213 203 218 251 244 209 67 71 43 26 18 17 25 39 46
201 211 227 231 245 258 256 254 246 242 251 250 250 249 248 235 228 195 11 355 334 332 339 253 197 264 279 281 265 241 229 223 206 193 183 188 195 210 221 222 219 215 198 189 189 161 113 52 47 50 39 42 52 67
219 226 229 245 252 254 236 216 232 254 228 219 217 210 187 169 109 26 45 31 30 26 18 336 256 240 227 213 206 215 220 196 177 174 166 183 186 214 209 200 195 194 197 191 178 156 105 69 64 69 74 72 73 68